Tracking 19638 objects as of 21-Apr-2019
HD Live streaming from Space Station
objects crossing your sky now

ASAP-S

Track ASAP-S now!
10-day predictions
ASAP-S is classified as:


NORAD ID: 38013
Int'l Code: 2011-076G
Perigee: 580.4 km
Apogee: 590.4 km
Inclination: 98.0 °
Period: 96.2 minutes
Semi major axis: 6956 km
RCS: 2.764 m2 (large)
Launch date: December 17, 2011
Source: France (FR)
Launch site: FRENCH GUIANA (FRGUI)
aabbcc
Your satellite tracking list
Your tracking list is empty




NASA's NSSDC Master Catalog

Two Line Element Set (TLE):
1 38013U 11076G   19110.90482850 -.00000204 +00000-0 -12560-4 0  9994
2 38013 098.0306 251.6039 0007246 317.4356 042.6302 14.96328459400098
Source of the keplerian elements: AFSPC